Wind_Speed
17 17 17 17 17 16 16 16 15 14 14 12 11 10 9 9 9 8 8 8 8 7 7 6 6 6 6 5 4 4 5 5 5 6 5 5 5 5 6 6 6 7 8 9 8 7 7 7 7
17 18 16 17 18 16 17 16 16 15 14 13 12 11 9 9 9 9 9 9 9 8 7 6 6 6 6 5 5 5 5 5 5 6 5 5 5 5 5 6 7 7 8 8 8 7 6 7 6
17 17 17 18 19 18 18 18 17 16 15 14 13 12 10 9 10 9 10 10 10 9 8 7 7 7 6 6 5 5 5 5 6 6 5 5 5 5 5 6 7 7 7 7 7 7 6 6 6
19 19 20 21 20 19 18 18 17 17 16 15 14 12 11 10 10 10 10 10 10 9 8 8 8 7 7 6 6 6 6 6 6 6 5 5 5 5 6 7 7 7 6 6 6 7 6 5 5
21 22 23 21 20 20 18 18 18 17 16 17 16 13 12 12 11 11 11 11 10 9 8 8 8 7 7 7 7 6 6 6 6 6 6 6 5 6 7 7 6 7 6 6 6 5 5 5 6
19 22 22 20 20 19 18 18 18 17 17 17 17 15 13 13 12 12 12 11 10 10 8 8 8 8 8 8 8 7 7 6 7 7 7 6 6 6 6 6 7 7 6 6 5 5 5 6 5
18 21 21 20 19 19 19 19 18 18 17 17 17 16 15 14 13 12 12 11 11 10 9 9 8 8 7 8 8 7 7 7 7 7 7 7 7 7 7 7 7 6 6 6 7 7 6 5 5
20 20 20 19 19 19 20 19 19 19 18 17 17 16 16 16 15 14 13 12 11 11 11 10 9 9 8 9 8 8 7 7 8 8 8 8 7 7 7 7 7 6 6 7 7 7 7 6 5
19 18 18 19 18 19 20 21 20 20 19 18 18 17 17 16 15 14 14 13 12 12 11 10 10 10 10 10 9 9 8 8 8 8 8 8 8 7 7 6 7 7 6 6 6 6 6 6 5
17 16 17 19 18 19 20 21 21 21 20 18 17 17 17 17 16 15 14 13 13 12 11 11 10 10 11 10 9 9 9 9 8 8 8 8 8 8 7 6 6 7 6 6 6 6 6 5 4
15 15 17 19 18 19 20 21 21 21 20 19 18 17 17 17 16 15 15 14 13 11 11 10 11 11 10 10 9 9 9 9 8 8 8 7 7 8 8 8 7 7 7 6 5 5 5 4 3
14 16 17 19 19 19 20 21 21 20 19 19 18 18 17 17 16 15 14 14 13 12 11 11 11 11 10 9 9 9 8 8 8 7 7 7 7 7 7 7 6 6 5 4 4 3 3 4 3
13 15 17 18 19 19 20 21 20 19 19 18 18 18 17 17 16 16 15 14 13 12 12 12 12 11 10 10 9 10 9 8 8 7 8 8 8 7 6 6 5 5 5 4 4 3 2 3 4
14 14 16 17 17 18 18 20 20 19 19 19 18 17 17 17 17 16 15 14 14 13 13 12 12 12 11 10 10 9 9 9 9 9 9 9 8 7 7 6 5 4 4 4 3 3 3 3 3
12 14 14 15 15 16 17 17 18 18 19 18 18 17 16 16 16 16 15 15 14 14 14 13 12 12 11 10 10 9 9 9 9 9 9 8 8 8 7 6 6 5 5 4 3 4 4 4 3
12 12 12 13 13 15 15 15 16 16 17 17 17 16 16 16 15 15 15 15 15 14 14 14 13 13 12 11 10 10 10 10 9 9 9 9 8 8 8 7 6 6 6 5 4 5 5 4 4
10 9 9 9 10 13 13 14 15 15 16 16 16 16 16 15 14 14 14 14 14 14 13 13 14 13 13 12 10 9 9 9 9 9 9 9 9 8 8 7 7 6 6 6 6 6 5 4 4
9 7 6 7 9 10 11 13 13 14 15 15 15 15 15 14 14 14 14 13 13 13 12 13 13 13 12 12 11 10 9 8 8 9 8 8 8 8 8 8 6 6 6 6 6 5 4 3 3
7 5 5 7 8 9 10 10 11 12 14 14 14 14 15 15 15 14 13 13 13 12 12 12 12 12 12 12 11 11 10 9 8 8 8 8 8 8 8 8 7 5 5 6 6 5 4 4 4
6 3 2 4 5 6 8 8 9 10 11 12 12 12 13 14 14 14 13 13 13 13 12 11 11 11 11 12 12 11 10 9 9 9 8 8 8 8 8 8 7 6 6 6 6 5 5 4 4
7 4 2 2 1 2 5 7 7 8 9 10 10 11 12 12 13 14 13 13 13 12 12 11 10 10 11 11 11 11 10 9 9 9 8 8 8 8 8 8 8 6 6 5 5 5 4 4 4
8 6 5 3 2 2 4 5 7 7 8 8 10 10 11 11 12 12 12 13 12 12 11 11 10 10 10 10 10 10 10 9 9 8 8 8 8 7 7 7 7 6 5 5 4 4 4 4 5
7 7 5 4 4 3 3 5 6 7 7 8 9 10 10 10 10 11 11 11 11 11 11 10 9 9 9 10 10 10 10 10 8 8 8 7 7 7 7 7 6 5 5 4 4 4 4 4 4
9 9 8 7 7 6 5 4 5 6 6 7 8 9 8 9 9 10 10 10 10 10 10 9 9 9 9 9 10 10 9 9 8 8 7 7 7 7 7 7 6 5 5 4 4 4 5 4 4
11 11 11 10 9 8 7 7 4 6 6 7 7 7 7 7 8 8 8 8 8 9 9 9 8 8 8 8 8 9 9 9 8 8 8 8 7 7 7 7 6 6 6 5 5 5 5 5 5
14 13 12 11 10 9 9 8 5 6 6 6 6 6 6 5 5 6 6 7 7 7 7 8 8 7 7 7 8 8 8 8 8 8 7 7 8 8 7 7 7 6 6 6 6 6 6 6 6
15 14 12 12 11 11 10 9 7 5 5 6 7 7 6 4 4 5 5 6 7 7 7 7 8 6 6 6 6 7 8 8 8 8 8 8 8 9 8 8 7 7 7 7 7 7 8 8 7
17 15 15 15 14 14 13 11 8 6 5 7 8 8 7 6 5 5 5 6 6 7 7 7 8 8 7 6 6 7 8 8 9 9 9 9 9 9 9 9 8 7 7 8 8 8 8 8 8
18 17 17 15 15 15 14 12 10 9 7 8 8 9 9 8 7 6 6 6 6 8 8 8 8 8 7 7 7 8 9 9 9 10 10 9 9 9 10 9 8 8 8 9 9 8 9 9 10
21 19 17 17 17 18 16 14 12 11 10 10 9 10 9 8 8 8 8 7 8 8 8 9 9 9 9 9 9 9 10 10 10 11 11 10 10 10 11 10 10 9 9 9 10 10 10 10 11
Wind_Direction
77 72 66 62 60 62 60 58 54 57 60 63 66 69 73 77 87 92 96 100 102 104 112 116 113 106 104 100 101 102 97 96 94 101 111 113 115 115 114 116 116 121 130 134 131 131 135 132 133
70 67 65 60 60 58 58 57 56 60 63 62 61 63 72 83 84 89 93 94 97 101 107 110 108 104 104 101 100 103 101 99 99 103 105 105 111 115 112 120 123 123 126 132 133 134 135 135 132
64 60 59 61 61 57 56 57 57 59 61 61 62 64 72 86 83 87 94 94 95 97 101 101 101 102 102 101 101 102 98 100 101 104 97 94 104 116 123 123 127 126 127 131 136 134 133 134 136
61 58 57 60 58 60 58 57 55 56 58 61 62 64 72 81 83 89 92 95 94 95 98 98 95 97 95 93 96 98 98 102 101 101 96 96 103 112 118 123 125 126 129 129 138 136 130 130 134
59 57 55 56 59 60 58 57 54 54 57 59 60 63 72 80 84 88 90 94 93 93 95 94 94 99 97 95 92 96 100 105 104 99 98 99 103 111 119 126 129 126 126 127 141 141 130 134 145
58 58 53 55 58 59 61 61 57 57 60 61 61 60 68 75 83 85 87 92 90 90 90 91 90 95 97 96 94 95 100 105 106 100 98 102 106 111 117 127 130 132 131 126 127 142 148 145 146
60 58 53 57 58 62 64 64 63 60 60 62 62 61 66 72 79 81 82 82 83 87 88 90 88 89 93 93 94 97 99 99 104 99 100 100 104 112 121 116 123 130 128 126 123 131 138 133 134
62 57 55 55 56 62 62 63 63 62 60 60 62 63 63 69 77 80 80 82 84 85 84 88 82 80 88 91 90 91 96 97 99 94 96 96 104 110 113 113 112 111 116 120 121 122 122 121 127
62 59 56 57 58 60 62 62 60 59 58 58 61 64 63 66 72 76 78 80 82 83 82 83 82 84 87 88 90 89 93 96 97 93 91 91 99 102 105 111 107 104 110 117 116 114 115 126 129
61 60 62 62 63 64 65 61 57 56 56 56 58 63 65 66 69 72 73 74 77 79 80 80 79 82 86 89 88 84 87 93 94 93 91 89 92 97 101 107 104 112 115 116 117 121 124 127 124
66 64 67 68 66 66 65 61 57 57 56 55 57 62 65 64 66 68 70 73 77 79 80 81 80 78 82 85 83 82 85 91 93 96 95 91 86 87 91 92 100 116 123 127 128 124 124 128 128
72 68 68 70 69 65 62 57 56 57 56 57 59 62 65 65 64 65 67 70 71 74 74 76 78 80 81 82 81 80 84 89 84 89 91 88 86 83 78 85 94 101 107 112 119 118 127 131 134
76 74 71 70 69 64 59 58 56 55 56 58 60 61 63 64 63 64 66 68 69 72 73 73 74 75 79 81 79 81 83 82 81 79 80 79 85 79 74 83 85 87 90 92 93 109 125 128 135
83 79 72 70 71 68 62 58 56 54 57 58 60 61 61 60 61 62 65 67 68 71 71 70 70 67 74 81 83 83 82 81 79 72 72 74 73 71 76 80 77 77 75 82 88 100 116 115 124
87 83 78 73 71 69 64 58 54 53 54 55 56 58 58 57 58 60 63 65 67 69 69 68 66 65 68 73 80 80 77 76 74 72 71 69 70 69 71 75 69 72 71 66 65 75 99 105 112
88 82 78 73 68 65 60 56 54 54 51 51 52 52 53 54 56 58 60 62 65 67 67 66 65 66 70 72 73 72 70 73 72 71 69 67 68 69 66 65 61 67 73 69 66 76 86 93 92
103 88 79 73 70 64 58 52 52 54 51 49 49 48 48 50 51 53 57 61 62 64 66 64 63 65 69 71 71 70 69 70 67 66 65 65 66 65 60 62 63 70 71 74 72 76 80 81 77
110 98 86 70 61 57 52 47 48 51 50 48 47 46 46 46 47 51 54 56 60 62 64 63 63 64 68 68 66 64 63 66 68 66 63 62 62 60 58 56 61 65 69 72 69 62 63 63 59
118 107 81 73 57 48 49 48 48 49 50 48 47 46 47 46 46 48 49 51 58 61 62 61 61 63 65 65 63 60 59 61 64 63 60 60 58 56 54 52 55 58 63 62 57 56 49 42 39
138 140 115 93 58 42 36 42 46 45 43 42 44 44 46 46 46 47 49 50 54 57 59 59 59 61 60 62 61 58 57 56 58 58 59 58 55 53 50 49 51 56 59 55 50 45 38 33 26
173 198 191 129 86 37 19 22 30 39 39 39 39 37 43 45 46 46 47 50 50 53 55 56 57 61 59 59 57 54 53 51 53 52 56 58 56 51 49 45 43 43 44 42 39 28 22 19 14
196 213 215 222 246 325 353 3 20 29 34 37 35 35 43 42 43 45 47 50 49 51 52 52 55 60 57 55 57 55 50 51 51 50 51 52 51 47 43 39 37 35 30 27 24 16 11 6 357
208 219 220 237 253 281 308 332 359 5 20 32 31 32 36 38 38 40 42 45 46 46 47 47 52 52 52 50 51 50 46 47 47 46 47 43 41 37 34 32 31 32 28 18 10 3 354 354 346
212 216 218 230 245 267 280 295 336 346 5 13 20 20 23 31 29 32 36 38 40 39 41 42 45 50 51 51 48 45 40 37 38 38 35 31 28 25 19 17 17 17 16 7 354 345 344 341 336
218 216 211 225 241 251 261 274 311 332 346 352 0 5 6 13 18 24 28 30 31 30 31 31 37 43 42 41 39 37 34 30 28 25 20 15 13 13 10 7 4 0 358 354 344 335 329 326 327
222 226 225 230 236 248 258 262 282 306 317 330 336 336 339 348 359 10 20 24 22 22 21 19 25 31 31 27 25 22 20 18 15 10 4 360 359 355 354 354 350 345 342 338 333 331 327 318 317
224 228 230 230 233 245 251 253 256 274 294 312 320 319 320 327 342 354 10 13 11 10 11 10 12 12 9 6 5 2 0 2 2 359 356 352 348 346 344 340 337 336 333 326 322 322 320 316 312
225 223 224 224 230 241 248 247 245 258 275 296 310 310 313 321 326 340 354 355 354 352 355 357 358 353 346 344 342 342 345 347 348 349 348 345 343 343 338 336 336 334 332 328 320 316 315 312 310
223 226 227 228 234 243 245 247 249 255 258 276 289 303 308 316 322 320 318 325 331 335 336 339 341 337 334 328 326 329 330 333 336 336 338 337 338 339 337 334 334 333 330 328 324 317 312 308 306
225 228 229 233 236 240 246 253 254 263 260 265 279 288 299 304 303 304 307 309 314 320 320 320 322 322 319 318 315 316 322 324 327 330 330 327 325 326 326 323 323 325 326 323 320 315 310 307 304
Height
5887 5886 5885 5886 5886 5884 5882 5882 5882 5881 5881 5879 5879 5879 5879 5879 5879 5881 5878 5877 5877 5877 5877 5877 5877 5877 5877 5877 5877 5877 5877 5876 5876 5876 5876 5876 5875 5875 5875 5875 5874 5874 5875 5877 5878 5879 5879 5880 5881
5889 5889 5889 5889 5887 5886 5885 5884 5884 5883 5883 5881 5880 5880 5880 5879 5879 5879 5878 5878 5878 5878 5878 5878 5878 5878 5878 5878 5878 5878 5878 5878 5877 5877 5877 5877 5876 5876 5876 5876 5876 5876 5876 5878 5879 5879 5880 5881 5881
5892 5892 5892 5890 5888 5888 5888 5887 5886 5885 5884 5883 5883 5882 5881 5881 5880 5879 5879 5879 5879 5879 5879 5879 5879 5879 5879 5879 5879 5879 5878 5878 5878 5878 5878 5878 5877 5877 5877 5877 5877 5878 5878 5879 5880 5880 5880 5880 5882
5894 5894 5894 5891 5891 5890 5890 5889 5888 5887 5886 5885 5885 5884 5883 5882 5881 5881 5880 5880 5880 5880 5880 5880 5880 5880 5880 5880 5880 5880 5879 5879 5879 5879 5879 5878 5878 5878 5878 5878 5879 5879 5879 5880 5880 5880 5881 5881 5882
5897 5896 5895 5894 5893 5892 5892 5891 5890 5889 5888 5887 5886 5886 5884 5884 5883 5882 5881 5881 5881 5881 5881 5881 5881 5881 5881 5881 5881 5881 5880 5880 5880 5880 5879 5879 5879 5879 5879 5879 5879 5880 5880 5880 5881 5880 5881 5882 5882
5900 5898 5898 5897 5896 5895 5895 5894 5893 5892 5890 5889 5889 5888 5886 5885 5884 5884 5883 5883 5883 5883 5883 5882 5882 5882 5882 5882 5882 5882 5881 5881 5881 5881 5880 5880 5880 5880 5880 5880 5880 5881 5881 5881 5882 5881 5882 5883 5883
5903 5901 5900 5900 5899 5898 5898 5897 5896 5895 5893 5892 5891 5890 5889 5887 5886 5885 5885 5884 5884 5884 5884 5884 5883 5883 5883 5883 5883 5883 5882 5882 5882 5882 5881 5881 5881 5881 5881 5881 5881 5882 5882 5883 5883 5883 5883 5884 5884
5905 5904 5903 5903 5902 5901 5900 5900 5899 5897 5896 5895 5893 5892 5891 5890 5889 5888 5887 5887 5886 5886 5885 5885 5885 5884 5884 5884 5884 5884 5883 5883 5883 5883 5882 5882 5882 5882 5882 5882 5882 5883 5883 5884 5884 5884 5884 5884 5885
5907 5908 5907 5906 5905 5904 5903 5902 5901 5899 5898 5897 5896 5895 5894 5892 5891 5890 5889 5889 5888 5887 5887 5887 5887 5886 5885 5885 5885 5885 5884 5884 5884 5884 5884 5884 5883 5883 5883 5883 5883 5884 5884 5884 5885 5885 5885 5885 5886
5910 5911 5910 5909 5908 5907 5906 5905 5904 5902 5900 5899 5898 5897 5896 5894 5893 5893 5892 5891 5890 5890 5889 5889 5888 5887 5887 5886 5886 5886 5886 5886 5886 5886 5885 5885 5885 5885 5885 5884 5884 5885 5885 5885 5886 5886 5886 5886 5886
5913 5914 5913 5911 5911 5910 5909 5908 5906 5905 5904 5902 5901 5900 5898 5897 5896 5895 5894 5893 5893 5892 5891 5891 5890 5889 5888 5888 5888 5888 5888 5887 5887 5887 5887 5886 5886 5886 5886 5886 5885 5886 5886 5886 5886 5886 5887 5887 5887
5916 5916 5915 5914 5913 5913 5912 5910 5909 5908 5907 5906 5904 5902 5901 5900 5899 5898 5897 5896 5895 5894 5893 5893 5892 5891 5891 5890 5890 5889 5889 5889 5889 5888 5888 5888 5887 5887 5887 5886 5886 5886 5886 5886 5886 5887 5887 5887 5887
5919 5918 5917 5916 5915 5915 5914 5913 5913 5912 5910 5909 5907 5906 5904 5903 5902 5900 5899 5898 5897 5897 5896 5895 5894 5893 5892 5892 5891 5891 5890 5890 5890 5889 5889 5889 5889 5888 5888 5887 5887 5887 5887 5887 5887 5887 5887 5887 5887
5921 5920 5920 5919 5918 5917 5917 5917 5916 5915 5914 5912 5911 5909 5907 5906 5905 5903 5902 5901 5900 5899 5898 5897 5896 5895 5894 5893 5893 5893 5893 5892 5892 5891 5890 5890 5890 5889 5889 5889 5888 5888 5887 5887 5887 5887 5888 5888 5887
5923 5923 5922 5922 5921 5920 5920 5920 5919 5918 5916 5915 5913 5912 5910 5909 5907 5906 5905 5903 5902 5901 5900 5899 5898 5896 5895 5893 5894 5894 5894 5894 5893 5892 5892 5892 5891 5891 5890 5890 5889 5889 5888 5887 5887 5887 5887 5888 5887
5925 5925 5925 5924 5923 5923 5924 5923 5921 5920 5918 5917 5916 5914 5913 5912 5910 5909 5907 5905 5904 5903 5902 5901 5900 5899 5897 5896 5896 5896 5896 5895 5895 5894 5894 5893 5893 5892 5892 5891 5890 5889 5888 5888 5888 5888 5888 5888 5888
5925 5926 5926 5926 5925 5925 5925 5924 5923 5922 5920 5919 5918 5917 5915 5914 5912 5911 5909 5908 5906 5905 5904 5903 5902 5901 5900 5899 5898 5898 5897 5897 5896 5896 5895 5895 5894 5893 5893 5892 5891 5890 5889 5889 5889 5889 5889 5889 5888
5926 5926 5926 5926 5926 5926 5926 5926 5925 5924 5922 5921 5920 5919 5918 5916 5915 5913 5911 5910 5909 5908 5907 5906 5904 5903 5902 5901 5901 5900 5899 5898 5898 5897 5897 5896 5895 5894 5894 5893 5892 5891 5891 5890 5890 5890 5889 5889 5888
5926 5926 5927 5927 5927 5927 5927 5927 5926 5925 5924 5923 5922 5921 5920 5918 5917 5915 5913 5912 5911 5910 5908 5907 5906 5906 5905 5904 5903 5902 5901 5900 5899 5898 5898 5897 5896 5895 5895 5894 5893 5892 5892 5891 5891 5890 5890 5889 5888
5926 5927 5928 5929 5929 5929 5928 5928 5928 5926 5926 5925 5924 5923 5921 5920 5918 5917 5916 5914 5913 5911 5910 5909 5908 5907 5906 5905 5904 5904 5902 5901 5900 5899 5898 5898 5897 5896 5895 5894 5894 5893 5892 5892 5891 5890 5890 5889 5888
5926 5928 5928 5929 5929 5929 5929 5929 5928 5928 5927 5926 5925 5924 5923 5921 5920 5919 5918 5916 5915 5913 5912 5911 5910 5909 5908 5907 5906 5905 5904 5903 5902 5901 5900 5899 5897 5897 5896 5895 5894 5893 5892 5892 5891 5890 5890 5889 5888
5926 5927 5927 5929 5929 5929 5930 5929 5929 5928 5928 5927 5926 5924 5924 5923 5922 5921 5920 5918 5917 5916 5914 5913 5911 5910 5910 5909 5908 5907 5906 5904 5903 5901 5900 5900 5898 5897 5896 5895 5894 5893 5892 5891 5891 5890 5889 5888 5887
5925 5926 5927 5928 5928 5929 5929 5929 5929 5928 5928 5928 5926 5926 5925 5924 5923 5922 5921 5920 5919 5917 5916 5914 5913 5912 5911 5910 5909 5908 5906 5905 5903 5902 5901 5900 5899 5898 5897 5895 5894 5893 5892 5891 5890 5890 5889 5888 5887
5923 5925 5926 5926 5927 5927 5928 5928 5928 5927 5927 5927 5927 5926 5925 5925 5924 5923 5922 5921 5920 5919 5917 5916 5914 5913 5912 5911 5910 5909 5907 5906 5904 5903 5902 5901 5900 5898 5897 5895 5894 5893 5892 5891 5890 5889 5887 5887 5886
5921 5923 5925 5925 5925 5925 5925 5925 5927 5926 5926 5926 5926 5925 5925 5925 5924 5923 5922 5921 5920 5919 5918 5917 5915 5914 5913 5912 5911 5910 5908 5907 5905 5904 5902 5901 5899 5898 5896 5894 5893 5892 5891 5889 5888 5887 5886 5885 5884
5920 5921 5923 5923 5923 5923 5923 5923 5925 5925 5925 5924 5924 5924 5924 5924 5924 5923 5922 5921 5920 5919 5918 5917 5916 5915 5914 5913 5911 5910 5908 5907 5905 5904 5902 5901 5899 5897 5895 5893 5892 5891 5889 5888 5886 5885 5884 5883 5882
5917 5918 5919 5920 5921 5921 5921 5922 5923 5923 5923 5922 5922 5923 5922 5922 5923 5922 5922 5921 5920 5919 5918 5917 5916 5915 5913 5912 5911 5910 5908 5907 5905 5903 5901 5900 5898 5896 5894 5892 5890 5889 5887 5886 5884 5883 5882 5881 5880
5914 5916 5917 5917 5918 5918 5919 5919 5921 5921 5921 5921 5921 5921 5921 5922 5921 5921 5921 5920 5920 5919 5918 5917 5915 5914 5913 5911 5910 5909 5907 5906 5904 5902 5901 5899 5897 5895 5893 5891 5889 5887 5885 5883 5882 5881 5880 5879 5878
5910 5912 5913 5914 5915 5916 5916 5919 5918 5919 5919 5919 5919 5919 5919 5919 5919 5919 5919 5919 5918 5917 5916 5914 5914 5913 5911 5910 5909 5907 5905 5903 5902 5901 5899 5897 5895 5893 5891 5889 5887 5885 5883 5881 5879 5878 5877 5876 5875
5906 5907 5909 5911 5911 5912 5913 5917 5915 5915 5916 5916 5917 5917 5917 5917 5917 5917 5917 5916 5916 5915 5914 5913 5912 5911 5910 5908 5907 5905 5903 5901 5900 5899 5897 5895 5893 5891 5889 5887 5885 5883 5881 5879 5877 5875 5874 5873 5872